This is the latest recevied weather packets stored in our database for station/object KB3KBR-WX. If no packets are shown the sender has not sent any weather packets the latest 10 day(s).
| Time | Temp. | Humidity | Pressure | Rain* | Wind** | Luminosity | Snow |
|---|---|---|---|---|---|---|---|
| 1777750826 | 5.56° C | 73% | 1012.2 hPa | 0 mm | - | - | - |
| 1777750496 | 5.56° C | 74% | 1012.2 hPa | 0 mm | - | - | - |
| 1777750196 | 5.56° C | 75% | 1012.4 hPa | 0 mm | - | - | - |
| 1777749866 | 5° C | 76% | 1012.3 hPa | 0 mm | - | - | - |
| 1777749566 | 5° C | 75% | 1012.4 hPa | 0 mm | - | - | - |
| 1777749241 | 4.44° C | 77% | 1012.5 hPa | 0 mm | - | - | - |
| 1777748936 | 4.44° C | 79% | 1012.6 hPa | 0 mm | - | - | - |
| 1777748606 | 4.44° C | 78% | 1012.6 hPa | 0 mm | - | - | - |
| 1777748307 | 4.44° C | 80% | 1012.7 hPa | 0 mm | - | - | - |
| 1777747976 | 4.44° C | 79% | 1012.7 hPa | 0 mm | - | - | - |
| 1777747646 | 4.44° C | 80% | 1012.7 hPa | 0 mm | - | - | - |
| 1777747016 | 4.44° C | 77% | 1012.7 hPa | 0 mm | - | - | - |
| 1777746716 | 4.44° C | 79% | 1012.7 hPa | 0 mm | - | - | - |
| 1777746416 | 4.44° C | 79% | 1012.7 hPa | 0 mm | - | - | - |
| 1777746086 | 4.44° C | 78% | 1012.7 hPa | 0 mm | - | - | - |
| 1777745787 | 4.44° C | 82% | 1012.7 hPa | 0 mm | - | - | - |
| 1777745456 | 4.44° C | 82% | 1012.7 hPa | 0 mm | - | - | - |
| 1777745126 | 3.89° C | 83% | 1012.7 hPa | 0 mm | - | - | - |
| 1777744830 | 3.89° C | 85% | 1012.7 hPa | 0 mm | - | - | - |
| 1777744496 | 3.33° C | 85% | 1012.8 hPa | 0 mm | - | - | - |
| 1777744166 | 3.33° C | 86% | 1012.8 hPa | 0 mm | - | - | - |
| 1777743866 | 3.33° C | 86% | 1012.8 hPa | 0.25 mm | - | - | - |
| 1777743536 | 3.33° C | 85% | 1012.7 hPa | 0.25 mm | - | - | - |
| 1777743206 | 3.33° C | 85% | 1012.8 hPa | 0.25 mm | - | - | - |
| 1777742906 | 3.33° C | 86% | 1012.7 hPa | 0.25 mm | - | - | - |
* Rain latest hour (hover to see other rain measurements)
** Current wind speed in m/s (hover to see current wind gust speed)